User: anonymous   Login
Location: Indian Springs
(36.5700°N, 115.6700°W)
Time: 02:08:18
(UTC-07:00)
Language:

Cosmos 2278 Rocket - Orbit

View from above orbital plane
View from above orbital plane
View from above satellite
View from above satellite

Ground track
Ground track

The orbit data is extracted from the following two-line orbital elements,

1 23088U 94023B   17230.92186875 -.00000304 +00000-0 -13298-3 0  9993
2 23088 071.0008 150.3866 0004106 327.6047 032.4823 14.14658497204140
Epoch (UTC): 18 August 2017 22:07:29
Eccentricity: 0.0004106
inclination: 71.0008°
perigee height: 840 km
apogee height: 846 km
right ascension of ascending node: 150.3866°
argument of perigee: 327.6047°
revolutions per day: 14.14658497
mean anomaly at epoch: 32.4823°
orbit number at epoch: 20414

The dashed part of the orbit path shows where the satellite is in the earth's shadow,  

DLR